Time,TemperatureF,DewpointF,PressureIn,WindDirection,WindDirectionDegrees,WindSpeedMPH,WindSpeedGustMPH,Humidity,HourlyPrecipIn,Conditions,Clouds,dailyrainin,SoftwareType,DateUTC
2013-07-19 00:04:00,58.0,58.0,29.97,NNE,13,0.0,2.5,100,0.00,,,0.00,WSDL version 420,2013-07-18 14:04:00,
2013-07-19 00:09:00,58.0,58.0,29.97,ESE,109,0.4,2.2,100,0.00,,,0.00,WSDL version 420,2013-07-18 14:09:00,
2013-07-19 00:14:00,58.1,58.1,29.97,East,87,0.0,2.2,100,0.00,,,0.00,WSDL version 420,2013-07-18 14:14:00,
2013-07-19 00:19:00,58.1,58.1,29.97,SE,138,0.4,2.9,100,0.00,,,0.00,WSDL version 420,2013-07-18 14:19:00,
2013-07-19 00:24:00,57.9,57.9,29.97,SSW,203,0.0,2.9,100,0.00,,,0.00,WSDL version 420,2013-07-18 14:24:00,
2013-07-19 00:29:00,57.9,57.9,29.97,ESE,110,1.0,2.5,100,0.00,,,0.00,WSDL version 420,2013-07-18 14:29:00,
2013-07-19 00:34:00,57.9,57.9,29.97,SSE,165,0.3,2.7,100,0.00,,,0.00,WSDL version 420,2013-07-18 14:34:00,
2013-07-19 00:39:00,57.8,57.8,29.97,South,180,0.0,2.7,100,0.00,,,0.00,WSDL version 420,2013-07-18 14:39:00,
2013-07-19 00:44:00,57.6,57.6,29.97,South,188,0.4,1.6,100,0.00,,,0.00,WSDL version 420,2013-07-18 14:44:00,
2013-07-19 00:49:00,57.6,57.6,29.94,NE,51,0.0,1.6,100,0.00,,,0.00,WSDL version 420,2013-07-18 14:49:00,
2013-07-19 00:54:00,57.4,57.4,29.94,South,172,0.0,1.1,100,0.00,,,0.00,WSDL version 420,2013-07-18 14:54:00,
2013-07-19 00:59:00,57.2,57.2,29.94,North,10,0.0,1.1,100,0.00,,,0.00,WSDL version 420,2013-07-18 14:59:00,
2013-07-19 01:09:00,57.0,57.0,29.94,SE,138,0.0,0.0,100,0.00,,,0.00,WSDL version 420,2013-07-18 15:09:00,
2013-07-19 01:14:00,57.0,57.0,29.94,South,190,0.0,0.9,100,0.00,,,0.00,WSDL version 420,2013-07-18 15:14:00,
2013-07-19 01:19:00,56.9,56.9,29.94,WSW,238,0.0,0.9,100,0.00,,,0.00,WSDL version 420,2013-07-18 15:19:00,
2013-07-19 01:24:00,56.7,56.7,29.94,South,191,0.0,0.0,100,0.00,,,0.00,WSDL version 420,2013-07-18 15:24:00,
2013-07-19 01:29:00,56.7,56.7,29.94,WNW,284,0.0,0.0,100,0.00,,,0.00,WSDL version 420,2013-07-18 15:29:00,
2013-07-19 01:34:00,56.6,56.6,29.94,South,188,0.0,0.0,100,0.00,,,0.00,WSDL version 420,2013-07-18 15:34:00,
2013-07-19 01:39:00,56.4,56.4,29.94,South,191,0.0,0.0,100,0.00,,,0.00,WSDL version 420,2013-07-18 15:39:00,
2013-07-19 01:44:00,56.3,56.3,29.94,West,276,0.0,1.6,100,0.00,,,0.00,WSDL version 420,2013-07-18 15:44:00,
2013-07-19 01:49:00,56.3,56.3,29.91,SW,236,0.4,2.0,100,0.00,,,0.00,WSDL version 420,2013-07-18 15:49:00,
2013-07-19 01:54:00,56.1,56.1,29.91,West,267,0.0,2.0,100,0.00,,,0.00,WSDL version 420,2013-07-18 15:54:00,
2013-07-19 01:59:00,56.0,56.0,29.91,SW,225,0.0,0.0,100,0.00,,,0.00,WSDL version 420,2013-07-18 15:59:00,
2013-07-19 02:04:00,55.9,55.8,29.94,SW,219,0.0,0.0,100,0.00,,,0.00,WSDL version 420,2013-07-18 16:04:00,
2013-07-19 02:09:00,55.9,55.9,29.94,WNW,296,0.0,0.0,100,0.00,,,0.00,WSDL version 420,2013-07-18 16:09:00,
2013-07-19 02:14:00,55.8,55.8,29.94,SW,217,0.0,0.0,100,0.00,,,0.00,WSDL version 420,2013-07-18 16:14:00,
2013-07-19 02:19:00,55.7,55.7,29.91,ESE,106,0.0,0.0,100,0.00,,,0.00,WSDL version 420,2013-07-18 16:19:00,
2013-07-19 02:24:00,55.4,55.4,29.91,SW,215,0.0,0.0,100,0.00,,,0.00,WSDL version 420,2013-07-18 16:24:00,
2013-07-19 02:29:00,55.4,55.4,29.91,SW,222,0.0,0.0,100,0.00,,,0.00,WSDL version 420,2013-07-18 16:29:00,
2013-07-19 02:34:00,55.4,55.4,29.91,North,349,0.0,0.0,100,0.00,,,0.00,WSDL version 420,2013-07-18 16:34:00,
2013-07-19 02:39:00,55.1,55.1,29.91,ENE,76,0.0,0.0,100,0.00,,,0.00,WSDL version 420,2013-07-18 16:39:00,
2013-07-19 02:44:00,55.1,55.1,29.91,SE,125,0.0,1.3,100,0.00,,,0.00,WSDL version 420,2013-07-18 16:44:00,
2013-07-19 02:49:00,55.2,55.2,29.91,WNW,296,0.0,2.9,100,0.00,,,0.00,WSDL version 420,2013-07-18 16:49:00,
2013-07-19 02:54:00,55.4,55.4,29.91,NE,53,0.0,2.9,100,0.00,,,0.00,WSDL version 420,2013-07-18 16:54:00,
2013-07-19 02:59:00,55.4,55.4,29.91,WSW,244,0.0,0.9,100,0.00,,,0.00,WSDL version 420,2013-07-18 16:59:00,
2013-07-19 03:04:00,55.3,55.3,29.88,ESE,116,0.0,0.0,100,0.00,,,0.00,WSDL version 420,2013-07-18 17:04:00,
2013-07-19 03:09:00,55.1,55.1,29.88,SSW,206,0.0,0.0,100,-99.99,,,-99.99,WSDL version 420,2013-07-18 17:09:00,
2013-07-19 03:14:00,55.0,55.0,29.88,ESE,107,0.0,1.1,100,0.00,,,0.00,WSDL version 420,2013-07-18 17:14:00,
2013-07-19 03:19:00,54.9,54.9,29.88,SE,141,0.8,2.5,100,0.00,,,0.00,WSDL version 420,2013-07-18 17:19:00,
2013-07-19 03:24:00,55.1,55.1,29.88,ESE,109,0.4,2.5,100,0.00,,,0.00,WSDL version 420,2013-07-18 17:24:00,
2013-07-19 03:29:00,55.2,55.2,29.88,South,176,0.0,2.2,100,0.00,,,0.00,WSDL version 420,2013-07-18 17:29:00,
2013-07-19 03:34:00,55.4,55.4,29.91,ESE,105,0.0,2.0,100,0.00,,,0.00,WSDL version 420,2013-07-18 17:34:00,
2013-07-19 03:39:00,55.4,55.4,29.91,SE,146,1.2,2.2,100,0.00,,,0.00,WSDL version 420,2013-07-18 17:39:00,
2013-07-19 03:44:00,55.4,55.4,29.91,ESE,119,0.0,2.2,100,-99.99,,,-99.99,WSDL version 420,2013-07-18 17:44:00,
2013-07-19 03:49:00,55.5,55.5,29.91,NNW,338,0.0,1.6,100,0.00,,,0.00,WSDL version 420,2013-07-18 17:49:00,
2013-07-19 03:54:00,55.3,55.3,29.91,ENE,68,0.0,1.6,100,0.00,,,0.00,WSDL version 420,2013-07-18 17:54:00,
2013-07-19 03:59:00,55.4,55.4,29.91,SE,140,0.0,0.0,100,0.00,,,0.00,WSDL version 420,2013-07-18 17:59:00,
2013-07-19 04:04:00,55.3,55.3,29.91,East,84,0.9,2.5,100,-99.99,,,-99.99,WSDL version 420,2013-07-18 18:04:00,
2013-07-19 04:09:00,55.2,55.2,29.91,ESE,110,0.0,2.5,100,0.00,,,0.00,WSDL version 420,2013-07-18 18:09:00,
2013-07-19 04:14:00,55.1,55.1,29.91,West,276,0.0,1.3,100,0.00,,,0.00,WSDL version 420,2013-07-18 18:14:00,
2013-07-19 04:19:00,55.2,55.2,29.91,NE,54,0.0,3.1,100,0.00,,,0.00,WSDL version 420,2013-07-18 18:19:00,
2013-07-19 04:24:00,55.4,55.4,29.91,SE,132,0.0,3.1,100,0.00,,,0.00,WSDL version 420,2013-07-18 18:24:00,
2013-07-19 04:29:00,55.3,55.3,29.91,East,93,0.3,1.3,100,0.00,,,0.00,WSDL version 420,2013-07-18 18:29:00,
2013-07-19 04:34:00,55.4,55.4,29.88,SSE,160,0.5,2.5,100,0.00,,,0.00,WSDL version 420,2013-07-18 18:34:00,
2013-07-19 04:39:00,55.4,55.4,29.88,NW,305,1.3,3.4,100,0.00,,,0.00,WSDL version 420,2013-07-18 18:39:00,
2013-07-19 04:44:00,55.6,55.6,29.88,ENE,70,0.0,3.4,100,0.00,,,0.00,WSDL version 420,2013-07-18 18:44:00,
2013-07-19 04:49:00,55.6,55.6,29.88,ESE,103,0.0,2.7,100,0.00,,,0.00,WSDL version 420,2013-07-18 18:49:00,
2013-07-19 04:54:00,55.6,55.6,29.88,SE,135,0.0,1.6,100,0.00,,,0.00,WSDL version 420,2013-07-18 18:54:00,
2013-07-19 04:59:00,55.6,55.6,29.88,ENE,65,0.0,0.0,100,0.00,,,0.00,WSDL version 420,2013-07-18 18:59:00,
2013-07-19 05:04:00,55.6,55.6,29.91,WNW,289,0.0,0.0,100,0.00,,,0.00,WSDL version 420,2013-07-18 19:04:00,
2013-07-19 05:09:00,55.6,55.6,29.91,South,177,0.0,0.9,100,0.00,,,0.00,WSDL version 420,2013-07-18 19:09:00,
2013-07-19 05:14:00,55.5,55.5,29.91,NNW,338,0.0,0.9,100,0.00,,,0.00,WSDL version 420,2013-07-18 19:14:00,
2013-07-19 05:19:00,55.4,55.4,29.91,SE,132,0.0,0.9,100,0.00,,,0.00,WSDL version 420,2013-07-18 19:19:00,
2013-07-19 05:24:00,55.4,55.4,29.91,West,279,0.2,1.3,100,0.00,,,0.00,WSDL version 420,2013-07-18 19:24:00,
2013-07-19 05:29:00,55.4,55.4,29.91,SSW,212,0.4,2.0,100,0.00,,,0.00,WSDL version 420,2013-07-18 19:29:00,
2013-07-19 05:34:00,55.4,55.4,29.91,South,170,0.0,2.0,100,0.00,,,0.00,WSDL version 420,2013-07-18 19:34:00,
2013-07-19 05:39:00,55.4,55.4,29.91,WSW,248,0.0,0.0,100,0.00,,,0.00,WSDL version 420,2013-07-18 19:39:00,
2013-07-19 05:44:00,55.2,55.2,29.91,SSW,200,0.0,0.0,100,0.00,,,0.00,WSDL version 420,2013-07-18 19:44:00,
2013-07-19 05:49:00,55.3,55.3,29.91,ESE,106,0.0,0.0,100,0.00,,,0.00,WSDL version 420,2013-07-18 19:49:00,
2013-07-19 05:54:00,55.0,54.9,29.91,SE,132,0.0,0.0,100,0.00,,,0.00,WSDL version 420,2013-07-18 19:54:00,
2013-07-19 05:59:00,55.0,55.0,29.91,NE,50,0.0,0.0,100,0.00,,,0.00,WSDL version 420,2013-07-18 19:59:00,
2013-07-19 06:04:00,55.2,55.2,29.91,SE,125,0.0,1.6,100,0.00,,,0.00,WSDL version 420,2013-07-18 20:04:00,
2013-07-19 06:09:00,55.3,55.3,29.91,SSW,203,1.3,1.6,100,0.00,,,0.00,WSDL version 420,2013-07-18 20:09:00,
2013-07-19 06:14:00,55.4,55.4,29.91,SE,125,0.0,2.5,100,0.00,,,0.00,WSDL version 420,2013-07-18 20:14:00,
2013-07-19 06:19:00,55.3,55.3,29.91,NW,315,0.0,2.5,100,0.00,,,0.00,WSDL version 420,2013-07-18 20:19:00,
2013-07-19 06:24:00,55.1,55.1,29.91,South,183,0.0,2.0,100,0.00,,,0.00,WSDL version 420,2013-07-18 20:24:00,
2013-07-19 06:29:00,54.9,54.9,29.91,East,83,0.0,2.0,100,0.00,,,0.00,WSDL version 420,2013-07-18 20:29:00,
2013-07-19 06:34:00,54.9,54.9,29.91,SW,215,0.8,2.5,100,0.00,,,0.00,WSDL version 420,2013-07-18 20:34:00,
2013-07-19 06:39:00,54.9,54.9,29.91,SSE,150,0.0,2.5,100,0.00,,,0.00,WSDL version 420,2013-07-18 20:39:00,
2013-07-19 06:44:00,54.8,54.8,29.91,East,95,0.0,1.1,100,0.00,,,0.00,WSDL version 420,2013-07-18 20:44:00,
2013-07-19 06:49:00,54.8,54.8,29.91,NE,36,0.0,0.0,100,0.00,,,0.00,WSDL version 420,2013-07-18 20:49:00,
2013-07-19 06:54:00,54.8,54.8,29.91,SE,135,0.5,2.7,100,0.00,,,0.00,WSDL version 420,2013-07-18 20:54:00,
2013-07-19 06:59:00,54.7,54.7,29.91,East,98,0.0,2.7,100,0.00,,,0.00,WSDL version 420,2013-07-18 20:59:00,
2013-07-19 07:04:00,54.7,54.7,29.91,ENE,74,0.0,0.9,100,0.00,,,0.00,WSDL version 420,2013-07-18 21:04:00,
2013-07-19 07:14:00,55.0,55.0,29.91,East,98,0.4,2.7,100,0.00,,,0.00,WSDL version 420,2013-07-18 21:14:00,
2013-07-19 07:24:00,55.3,55.3,29.91,SE,127,0.0,2.7,100,0.00,,,0.00,WSDL version 420,2013-07-18 21:24:00,
2013-07-19 07:29:00,55.5,55.5,29.91,East,87,1.1,2.7,100,0.00,,,0.00,WSDL version 420,2013-07-18 21:29:00,
2013-07-19 07:34:00,55.9,55.9,29.91,NNW,343,0.7,2.7,100,0.00,,,0.00,WSDL version 420,2013-07-18 21:34:00,
2013-07-19 07:39:00,56.5,56.5,29.91,SSW,210,0.0,2.7,100,0.00,,,0.00,WSDL version 420,2013-07-18 21:39:00,
2013-07-19 07:44:00,57.0,57.0,29.91,East,90,0.4,2.5,100,0.00,,,0.00,WSDL version 420,2013-07-18 21:44:00,
2013-07-19 07:49:00,57.4,57.4,29.91,ENE,71,0.4,2.9,100,0.00,,,0.00,WSDL version 420,2013-07-18 21:49:00,
2013-07-19 07:54:00,58.6,58.6,29.91,ENE,63,2.6,3.4,100,0.00,,,0.00,WSDL version 420,2013-07-18 21:54:00,
2013-07-19 07:59:00,59.5,59.5,29.91,ESE,103,3.4,5.4,100,-99.99,,,-99.99,WSDL version 420,2013-07-18 21:59:00,
2013-07-19 08:04:00,59.4,59.4,29.91,East,90,0.8,5.4,100,0.00,,,0.00,WSDL version 420,2013-07-18 22:04:00,
2013-07-19 08:09:00,59.1,59.1,29.91,ENE,71,2.1,3.8,100,0.00,,,0.00,WSDL version 420,2013-07-18 22:09:00,
2013-07-19 08:14:00,59.5,59.4,29.91,NE,54,1.7,3.8,100,0.00,,,0.00,WSDL version 420,2013-07-18 22:14:00,
2013-07-19 08:19:00,59.4,59.4,29.91,NNE,26,1.4,3.4,100,0.00,,,0.00,WSDL version 420,2013-07-18 22:19:00,
2013-07-19 08:24:00,59.7,59.7,29.91,South,180,0.0,2.7,100,0.00,,,0.00,WSDL version 420,2013-07-18 22:24:00,
2013-07-19 08:29:00,60.1,60.1,29.91,ENE,70,1.2,3.1,100,0.00,,,0.00,WSDL version 420,2013-07-18 22:29:00,
2013-07-19 08:34:00,60.2,60.1,29.91,NNE,18,2.1,4.9,99,0.00,,,0.00,WSDL version 420,2013-07-18 22:34:00,
2013-07-19 08:39:00,61.1,60.8,29.91,NNE,20,0.0,4.9,99,0.00,,,0.00,WSDL version 420,2013-07-18 22:39:00,
2013-07-19 08:44:00,61.6,61.2,29.91,NE,35,1.8,2.9,98,0.00,,,0.00,WSDL version 420,2013-07-18 22:44:00,
2013-07-19 08:49:00,62.2,60.9,29.91,NNE,23,1.8,3.4,94,0.00,,,0.00,WSDL version 420,2013-07-18 22:49:00,
2013-07-19 08:54:00,63.1,61.1,29.91,East,90,0.9,3.4,93,0.00,,,0.00,WSDL version 420,2013-07-18 22:54:00,
2013-07-19 08:59:00,64.0,61.7,29.91,NNE,20,1.3,3.8,90,0.00,,,0.00,WSDL version 420,2013-07-18 22:59:00,
2013-07-19 09:04:00,65.1,61.5,29.91,North,349,1.0,3.8,89,0.00,,,0.00,WSDL version 420,2013-07-18 23:04:00,
2013-07-19 09:09:00,65.6,60.3,29.91,NE,38,1.9,4.0,82,0.00,,,0.00,WSDL version 420,2013-07-18 23:09:00,
2013-07-19 09:14:00,65.4,58.2,29.91,NNE,23,2.7,4.9,77,0.00,,,0.00,WSDL version 420,2013-07-18 23:14:00,
2013-07-19 09:19:00,65.6,58.2,29.91,North,360,2.6,7.6,78,0.00,,,0.00,WSDL version 420,2013-07-18 23:19:00,
2013-07-19 09:24:00,66.2,58.7,29.91,NE,56,1.7,7.6,78,0.00,,,0.00,WSDL version 420,2013-07-18 23:24:00,
2013-07-19 09:29:00,66.7,57.4,29.91,North,349,3.2,6.3,72,0.00,,,0.00,WSDL version 420,2013-07-18 23:29:00,
2013-07-19 09:34:00,66.8,57.5,29.91,NNE,25,3.0,6.5,71,0.00,,,0.00,WSDL version 420,2013-07-18 23:34:00,
2013-07-19 09:39:00,65.8,56.5,29.91,NNE,19,3.0,6.5,72,0.00,,,0.00,WSDL version 420,2013-07-18 23:39:00,
2013-07-19 09:44:00,66.7,57.7,29.91,North,356,2.2,4.0,72,0.00,,,0.00,WSDL version 420,2013-07-18 23:44:00,
2013-07-19 09:49:00,67.2,57.5,29.91,NNW,334,2.1,3.8,71,0.00,,,0.00,WSDL version 420,2013-07-18 23:49:00,
2013-07-19 09:54:00,67.5,57.6,29.91,NW,326,2.3,4.7,70,0.00,,,0.00,WSDL version 420,2013-07-18 23:54:00,
2013-07-19 09:59:00,68.5,57.7,29.91,NW,321,2.8,4.7,68,0.00,,,0.00,WSDL version 420,2013-07-18 23:59:00,
2013-07-19 10:04:00,68.9,57.3,29.91,North,6,3.4,6.3,65,0.00,,,0.00,WSDL version 420,2013-07-19 00:04:00,
2013-07-19 10:09:00,68.7,57.2,29.91,North,360,2.2,6.3,67,0.00,,,0.00,WSDL version 420,2013-07-19 00:09:00,
2013-07-19 10:14:00,69.4,57.7,29.91,WNW,301,3.1,6.3,65,0.00,,,0.00,WSDL version 420,2013-07-19 00:14:00,
2013-07-19 10:19:00,70.4,57.8,29.91,NNW,330,3.0,6.3,64,-99.99,,,-99.99,WSDL version 420,2013-07-19 00:19:00,
2013-07-19 10:24:00,71.0,56.7,29.91,NNW,340,3.6,7.6,60,0.00,,,0.00,WSDL version 420,2013-07-19 00:24:00,
2013-07-19 10:29:00,70.5,56.2,29.91,WNW,289,3.8,7.6,60,0.00,,,0.00,WSDL version 420,2013-07-19 00:29:00,
2013-07-19 10:34:00,70.4,56.3,29.91,NNW,338,2.7,5.4,61,0.00,,,0.00,WSDL version 420,2013-07-19 00:34:00,
2013-07-19 10:39:00,69.8,55.7,29.91,North,360,2.3,5.4,61,0.00,,,0.00,WSDL version 420,2013-07-19 00:39:00,
2013-07-19 10:44:00,68.9,55.4,29.91,North,11,2.6,4.3,62,0.00,,,0.00,WSDL version 420,2013-07-19 00:44:00,
2013-07-19 10:49:00,68.3,55.3,29.88,North,360,1.5,4.0,64,0.00,,,0.00,WSDL version 420,2013-07-19 00:49:00,
2013-07-19 10:54:00,68.2,55.9,29.88,NNE,20,1.4,4.0,65,0.00,,,0.00,WSDL version 420,2013-07-19 00:54:00,
2013-07-19 10:59:00,69.5,57.4,29.88,North,360,2.6,5.4,65,0.00,,,0.00,WSDL version 420,2013-07-19 00:59:00,
2013-07-19 11:04:00,70.8,57.8,29.88,North,6,3.1,5.4,63,0.00,,,0.00,WSDL version 420,2013-07-19 01:04:00,
2013-07-19 11:09:00,71.8,58.2,29.88,NNE,23,1.6,5.4,62,0.00,,,0.00,WSDL version 420,2013-07-19 01:09:00,
2013-07-19 11:14:00,72.4,58.0,29.88,North,354,2.1,4.3,59,0.00,,,0.00,WSDL version 420,2013-07-19 01:14:00,
2013-07-19 11:19:00,71.8,56.1,29.88,NNE,26,2.6,4.3,58,0.00,,,0.00,WSDL version 420,2013-07-19 01:19:00,
2013-07-19 11:24:00,71.1,55.7,29.88,NNE,25,2.0,4.3,59,0.00,,,0.00,WSDL version 420,2013-07-19 01:24:00,
2013-07-19 11:29:00,70.9,56.3,29.88,WNW,302,0.4,2.9,60,0.00,,,0.00,WSDL version 420,2013-07-19 01:29:00,
2013-07-19 11:34:00,71.8,57.1,29.88,WNW,286,2.0,3.4,58,0.00,,,0.00,WSDL version 420,2013-07-19 01:34:00,
2013-07-19 11:39:00,72.8,57.0,29.88,NW,315,2.1,4.0,58,0.00,,,0.00,WSDL version 420,2013-07-19 01:39:00,
2013-07-19 11:44:00,74.6,58.7,29.88,NW,312,1.3,4.0,56,0.00,,,0.00,WSDL version 420,2013-07-19 01:44:00,
2013-07-19 11:49:00,75.7,57.0,29.85,WNW,293,2.2,3.6,50,0.00,,,0.00,WSDL version 420,2013-07-19 01:49:00,
2013-07-19 11:54:00,74.8,54.1,29.85,NW,312,2.0,6.3,50,0.00,,,0.00,WSDL version 420,2013-07-19 01:54:00,
2013-07-19 11:59:00,75.0,54.4,29.85,WNW,295,2.4,6.3,48,0.00,,,0.00,WSDL version 420,2013-07-19 01:59:00,
2013-07-19 12:04:00,75.3,53.7,29.83,NNW,334,3.0,4.0,47,0.00,,,0.00,WSDL version 420,2013-07-19 02:04:00,
2013-07-19 12:09:00,75.3,53.3,29.83,NW,325,2.1,4.3,47,0.00,,,0.00,WSDL version 420,2013-07-19 02:09:00,
2013-07-19 12:14:00,75.0,53.9,29.83,NW,305,1.4,4.3,48,0.00,,,0.00,WSDL version 420,2013-07-19 02:14:00,
2013-07-19 12:19:00,74.7,53.5,29.85,NW,307,2.6,4.0,47,0.00,,,0.00,WSDL version 420,2013-07-19 02:19:00,
2013-07-19 12:29:00,73.4,53.1,29.85,NW,325,3.6,5.4,49,0.00,,,0.00,WSDL version 420,2013-07-19 02:29:00,
2013-07-19 12:34:00,73.2,53.9,29.83,WNW,293,2.0,5.4,51,0.00,,,0.00,WSDL version 420,2013-07-19 02:34:00,
2013-07-19 12:39:00,73.1,54.4,29.83,NW,318,2.6,4.3,52,0.00,,,0.00,WSDL version 420,2013-07-19 02:39:00,
2013-07-19 12:44:00,73.1,55.0,29.83,WSW,257,2.1,4.3,53,0.00,,,0.00,WSDL version 420,2013-07-19 02:44:00,
2013-07-19 12:49:00,72.8,54.9,29.85,NW,315,2.2,4.7,54,0.00,,,0.00,WSDL version 420,2013-07-19 02:49:00,
2013-07-19 12:54:00,72.4,54.4,29.85,West,266,4.2,6.3,52,0.00,,,0.00,WSDL version 420,2013-07-19 02:54:00,
2013-07-19 12:59:00,71.8,53.6,29.85,West,280,2.1,6.3,53,0.00,,,0.00,WSDL version 420,2013-07-19 02:59:00,
2013-07-19 13:04:00,71.3,54.0,29.83,West,259,2.8,4.7,55,0.00,,,0.00,WSDL version 420,2013-07-19 03:04:00,
2013-07-19 13:09:00,70.9,53.6,29.83,West,268,3.6,5.6,54,0.00,,,0.00,WSDL version 420,2013-07-19 03:09:00,
2013-07-19 13:14:00,70.6,53.7,29.83,West,270,3.4,5.6,55,-99.99,,,-99.99,WSDL version 420,2013-07-19 03:14:00,
2013-07-19 13:19:00,70.3,53.5,29.85,WNW,293,3.5,7.4,55,0.00,,,0.00,WSDL version 420,2013-07-19 03:19:00,
2013-07-19 13:24:00,69.9,53.2,29.85,WNW,289,3.6,7.6,56,0.00,,,0.00,WSDL version 420,2013-07-19 03:24:00,
2013-07-19 13:29:00,69.7,53.6,29.85,NW,312,3.5,9.6,57,0.00,,,0.00,WSDL version 420,2013-07-19 03:29:00,
2013-07-19 13:34:00,69.2,53.3,29.85,West,276,4.2,11.2,58,-99.99,,,-99.99,WSDL version 420,2013-07-19 03:34:00,
2013-07-19 13:44:00,68.4,54.3,29.85,West,270,5.7,11.9,62,0.00,,,0.00,WSDL version 420,2013-07-19 03:44:00,
2013-07-19 13:49:00,68.0,54.7,29.85,West,280,6.4,14.5,63,0.00,,,0.00,WSDL version 420,2013-07-19 03:49:00,
2013-07-19 13:54:00,67.9,55.1,29.85,NW,304,4.0,14.5,64,0.00,,,0.00,WSDL version 420,2013-07-19 03:54:00,
2013-07-19 13:59:00,67.6,55.4,29.85,WNW,299,6.0,10.1,65,0.00,,,0.00,WSDL version 420,2013-07-19 03:59:00,
2013-07-19 14:04:00,67.2,55.6,29.85,WNW,284,3.2,10.1,67,0.00,,,0.00,WSDL version 420,2013-07-19 04:04:00,
2013-07-19 14:09:00,66.9,55.9,29.85,WNW,293,5.1,8.7,68,0.00,,,0.00,WSDL version 420,2013-07-19 04:09:00,
2013-07-19 14:14:00,66.3,56.0,29.85,WNW,290,3.1,9.4,71,0.00,,,0.00,WSDL version 420,2013-07-19 04:14:00,
2013-07-19 14:19:00,65.7,56.2,29.85,NW,304,3.0,9.4,72,0.00,,,0.00,WSDL version 420,2013-07-19 04:19:00,
2013-07-19 14:24:00,64.6,56.5,29.85,West,281,2.5,7.2,75,0.00,,,0.00,WSDL version 420,2013-07-19 04:24:00,
2013-07-19 14:29:00,64.0,56.6,29.85,WNW,283,2.1,7.2,78,0.00,,,0.00,WSDL version 420,2013-07-19 04:29:00,
2013-07-19 14:34:00,63.4,57.8,29.83,NW,318,1.2,5.4,82,0.00,,,0.00,WSDL version 420,2013-07-19 04:34:00,
2013-07-19 14:39:00,63.0,57.5,29.83,West,273,0.9,5.4,82,0.00,,,0.00,WSDL version 420,2013-07-19 04:39:00,
2013-07-19 14:44:00,62.8,58.2,29.83,West,267,2.3,3.6,87,0.00,,,0.00,WSDL version 420,2013-07-19 04:44:00,
2013-07-19 14:49:00,62.6,58.8,29.83,NW,319,1.5,3.8,88,0.00,,,0.00,WSDL version 420,2013-07-19 04:49:00,
2013-07-19 14:54:00,62.3,59.9,29.83,NNW,329,2.3,3.8,92,0.00,,,0.00,WSDL version 420,2013-07-19 04:54:00,
2013-07-19 14:59:00,62.2,60.3,29.83,NW,315,3.1,3.8,94,0.00,,,0.00,WSDL version 420,2013-07-19 04:59:00,
2013-07-19 15:04:00,61.8,60.6,29.83,WNW,297,1.7,4.0,96,0.00,,,0.00,WSDL version 420,2013-07-19 05:04:00,
2013-07-19 15:09:00,61.7,60.7,29.83,NNW,333,2.0,4.7,97,0.00,,,0.00,WSDL version 420,2013-07-19 05:09:00,
2013-07-19 15:14:00,61.5,61.1,29.83,NW,321,2.7,5.8,99,0.00,,,0.00,WSDL version 420,2013-07-19 05:14:00,
2013-07-19 15:19:00,61.5,61.2,29.83,NW,323,1.0,5.8,99,0.00,,,0.00,WSDL version 420,2013-07-19 05:19:00,
2013-07-19 15:24:00,61.4,61.1,29.83,NW,321,2.2,3.4,99,0.00,,,0.00,WSDL version 420,2013-07-19 05:24:00,
2013-07-19 15:29:00,61.3,61.3,29.83,NNW,347,2.6,3.6,100,0.00,,,0.00,WSDL version 420,2013-07-19 05:29:00,
2013-07-19 15:34:00,61.3,61.2,29.83,NE,39,1.8,3.6,100,0.00,,,0.00,WSDL version 420,2013-07-19 05:34:00,
2013-07-19 15:39:00,61.1,61.1,29.83,NW,326,0.9,3.6,100,0.00,,,0.00,WSDL version 420,2013-07-19 05:39:00,
2013-07-19 15:44:00,-999.0,-99.9,29.83,NW,326,1.2,4.0,-999,0.00,,,0.00,WSDL version 420,2013-07-19 05:44:00,
2013-07-19 15:49:00,60.9,60.9,29.83,NNW,330,1.2,4.0,100,0.00,,,0.00,WSDL version 420,2013-07-19 05:49:00,
2013-07-19 15:54:00,60.6,60.6,29.83,NW,309,0.7,3.6,100,0.00,,,0.00,WSDL version 420,2013-07-19 05:54:00,
2013-07-19 15:59:00,60.5,60.5,29.83,WSW,255,0.0,3.1,100,0.00,,,0.00,WSDL version 420,2013-07-19 05:59:00,
2013-07-19 16:04:00,60.4,60.4,29.83,West,270,1.9,3.6,100,0.00,,,0.00,WSDL version 420,2013-07-19 06:04:00,
2013-07-19 16:09:00,60.3,60.3,29.83,West,266,1.9,3.6,100,0.00,,,0.00,WSDL version 420,2013-07-19 06:09:00,
2013-07-19 16:14:00,60.1,60.1,29.83,West,280,1.5,3.6,100,0.00,,,0.00,WSDL version 420,2013-07-19 06:14:00,
2013-07-19 16:19:00,60.1,60.1,29.85,West,264,2.4,4.0,100,0.00,,,0.00,WSDL version 420,2013-07-19 06:19:00,
2013-07-19 16:24:00,60.1,60.1,29.85,WSW,244,2.4,4.0,100,0.00,,,0.00,WSDL version 420,2013-07-19 06:24:00,
2013-07-19 16:29:00,60.0,60.0,29.85,West,264,1.6,4.0,100,0.00,,,0.00,WSDL version 420,2013-07-19 06:29:00,
2013-07-19 16:34:00,59.9,59.9,29.85,WNW,289,0.4,3.4,100,0.00,,,0.00,WSDL version 420,2013-07-19 06:34:00,
2013-07-19 16:39:00,59.8,59.8,29.85,WSW,256,0.0,2.0,100,0.00,,,0.00,WSDL version 420,2013-07-19 06:39:00,
2013-07-19 16:44:00,59.7,59.7,29.85,NNW,328,0.0,1.6,100,0.00,,,0.00,WSDL version 420,2013-07-19 06:44:00,
2013-07-19 16:49:00,59.7,59.7,29.83,North,352,0.0,3.1,100,0.00,,,0.00,WSDL version 420,2013-07-19 06:49:00,
2013-07-19 16:54:00,59.7,59.7,29.83,West,274,2.2,4.0,100,-99.99,,,-99.99,WSDL version 420,2013-07-19 06:54:00,
2013-07-19 16:59:00,59.7,59.7,29.83,North,5,1.5,4.3,100,0.00,,,0.00,WSDL version 420,2013-07-19 06:59:00,
2013-07-19 17:04:00,-999.0,-99.9,29.83,North,360,0.0,4.3,-999,0.00,,,0.00,WSDL version 420,2013-07-19 07:04:00,
2013-07-19 17:09:00,59.7,59.7,29.83,NW,315,1.2,4.0,100,0.00,,,0.00,WSDL version 420,2013-07-19 07:09:00,
2013-07-19 17:14:00,59.5,59.5,29.83,NW,312,0.7,3.8,100,0.00,,,0.00,WSDL version 420,2013-07-19 07:14:00,
2013-07-19 17:19:00,59.5,59.5,29.83,NE,41,0.9,3.6,100,0.00,,,0.00,WSDL version 420,2013-07-19 07:19:00,
2013-07-19 17:24:00,59.6,59.6,29.83,West,264,0.9,3.6,100,0.00,,,0.00,WSDL version 420,2013-07-19 07:24:00,
2013-07-19 17:29:00,59.5,59.5,29.83,ENE,64,0.8,3.4,100,0.00,,,0.00,WSDL version 420,2013-07-19 07:29:00,
2013-07-19 17:34:00,59.5,59.5,29.83,SW,225,0.0,1.6,100,-99.99,,,-99.99,WSDL version 420,2013-07-19 07:34:00,
2013-07-19 17:39:00,59.5,59.5,29.83,WNW,296,0.0,0.0,100,0.00,,,0.00,WSDL version 420,2013-07-19 07:39:00,
2013-07-19 17:44:00,59.5,59.5,29.83,NNW,345,1.1,2.9,100,0.00,,,0.00,WSDL version 420,2013-07-19 07:44:00,
2013-07-19 17:49:00,59.6,59.6,29.83,North,8,0.0,2.9,100,-99.99,,,-99.99,WSDL version 420,2013-07-19 07:49:00,
2013-07-19 17:54:00,59.7,59.7,29.83,North,349,0.0,3.1,100,0.00,,,0.00,WSDL version 420,2013-07-19 07:54:00,
2013-07-19 17:59:00,59.7,59.7,29.83,WSW,245,1.3,4.0,100,0.00,,,0.00,WSDL version 420,2013-07-19 07:59:00,
2013-07-19 18:04:00,60.0,60.0,29.83,NW,318,1.5,4.0,100,0.00,,,0.00,WSDL version 420,2013-07-19 08:04:00,
2013-07-19 18:09:00,60.1,60.1,29.83,NW,318,0.8,5.4,100,0.00,,,0.00,WSDL version 420,2013-07-19 08:09:00,
2013-07-19 18:14:00,60.2,60.2,29.83,West,270,1.2,5.8,100,0.00,,,0.00,WSDL version 420,2013-07-19 08:14:00,
2013-07-19 18:19:00,60.1,60.1,29.83,North,353,1.2,5.8,100,0.00,,,0.00,WSDL version 420,2013-07-19 08:19:00,
2013-07-19 18:24:00,60.1,60.1,29.83,NW,304,0.0,3.8,100,0.00,,,0.00,WSDL version 420,2013-07-19 08:24:00,
2013-07-19 18:29:00,59.9,59.9,29.83,NW,305,2.6,3.8,100,0.00,,,0.00,WSDL version 420,2013-07-19 08:29:00,
2013-07-19 18:34:00,59.9,59.9,29.83,WNW,298,0.7,3.8,100,0.00,,,0.00,WSDL version 420,2013-07-19 08:34:00,
2013-07-19 18:39:00,59.7,59.7,29.83,WNW,300,1.6,4.3,100,0.00,,,0.00,WSDL version 420,2013-07-19 08:39:00,
2013-07-19 18:44:00,59.7,59.7,29.83,NNW,334,0.0,4.3,100,0.00,,,0.00,WSDL version 420,2013-07-19 08:44:00,
2013-07-19 18:49:00,59.7,59.7,29.83,West,264,0.6,4.7,100,0.00,,,0.00,WSDL version 420,2013-07-19 08:49:00,
2013-07-19 18:54:00,59.7,59.7,29.83,WNW,293,0.0,4.7,100,0.00,,,0.00,WSDL version 420,2013-07-19 08:54:00,
2013-07-19 18:59:00,59.5,59.5,29.83,ESE,107,0.0,3.1,100,0.00,,,0.00,WSDL version 420,2013-07-19 08:59:00,
2013-07-19 19:04:00,59.5,59.5,29.83,WNW,286,0.0,0.0,100,0.00,,,0.00,WSDL version 420,2013-07-19 09:04:00,
2013-07-19 19:09:00,59.4,59.4,29.83,West,270,1.7,2.9,100,0.00,,,0.00,WSDL version 420,2013-07-19 09:09:00,
2013-07-19 19:14:00,59.4,59.4,29.83,WNW,295,2.1,4.7,100,0.00,,,0.00,WSDL version 420,2013-07-19 09:14:00,
2013-07-19 19:19:00,59.4,59.4,29.83,NW,309,0.9,4.7,100,0.00,,,0.00,WSDL version 420,2013-07-19 09:19:00,
2013-07-19 19:24:00,59.5,59.5,29.83,West,273,0.8,3.8,100,0.00,,,0.00,WSDL version 420,2013-07-19 09:24:00,
2013-07-19 19:29:00,59.5,59.5,29.83,NNW,334,2.4,5.4,100,0.00,,,0.00,WSDL version 420,2013-07-19 09:29:00,
2013-07-19 19:34:00,59.7,59.7,29.85,WNW,296,1.4,5.4,100,0.00,,,0.00,WSDL version 420,2013-07-19 09:34:00,
2013-07-19 19:39:00,59.7,59.7,29.85,WNW,283,2.3,4.5,100,0.00,,,0.00,WSDL version 420,2013-07-19 09:39:00,
2013-07-19 19:44:00,59.7,59.7,29.85,NW,315,1.1,4.5,100,0.00,,,0.00,WSDL version 420,2013-07-19 09:44:00,
2013-07-19 19:49:00,59.7,59.7,29.83,NW,315,1.6,4.5,100,0.00,,,0.00,WSDL version 420,2013-07-19 09:49:00,
2013-07-19 19:54:00,59.7,59.7,29.83,NW,304,1.3,4.7,100,0.00,,,0.00,WSDL version 420,2013-07-19 09:54:00,
2013-07-19 19:59:00,59.7,59.7,29.83,WNW,293,0.3,4.7,100,0.00,,,0.00,WSDL version 420,2013-07-19 09:59:00,
2013-07-19 20:04:00,59.7,59.7,29.85,West,267,0.8,4.3,100,0.00,,,0.00,WSDL version 420,2013-07-19 10:04:00,
2013-07-19 20:09:00,59.7,59.7,29.85,WNW,299,0.5,4.3,100,-99.99,,,-99.99,WSDL version 420,2013-07-19 10:09:00,
2013-07-19 20:14:00,59.5,59.5,29.85,North,357,0.0,2.7,100,0.00,,,0.00,WSDL version 420,2013-07-19 10:14:00,
2013-07-19 20:19:00,59.7,59.7,29.85,NNE,13,2.1,4.0,100,0.00,,,0.00,WSDL version 420,2013-07-19 10:19:00,
2013-07-19 20:24:00,59.7,59.7,29.85,ENE,74,1.9,4.3,100,0.00,,,0.00,WSDL version 420,2013-07-19 10:24:00,
2013-07-19 20:29:00,59.5,59.5,29.85,NE,48,0.0,4.3,100,0.00,,,0.00,WSDL version 420,2013-07-19 10:29:00,
2013-07-19 20:34:00,-999.0,-99.9,29.83,WNW,284,0.0,2.2,-999,0.00,,,0.00,WSDL version 420,2013-07-19 10:34:00,
2013-07-19 20:39:00,59.4,59.4,29.83,North,8,0.0,3.1,100,0.00,,,0.00,WSDL version 420,2013-07-19 10:39:00,
2013-07-19 20:44:00,59.2,59.2,29.83,NNW,338,0.0,3.1,100,-99.99,,,-99.99,WSDL version 420,2013-07-19 10:44:00,
2013-07-19 20:54:00,58.8,58.8,29.85,SW,225,0.0,0.0,100,0.00,,,0.00,WSDL version 420,2013-07-19 10:54:00,
2013-07-19 20:59:00,58.8,58.8,29.85,West,266,0.0,0.0,100,0.00,,,0.00,WSDL version 420,2013-07-19 10:59:00,
2013-07-19 21:04:00,58.8,58.8,29.85,SE,135,0.0,0.0,100,-99.99,,,-99.99,WSDL version 420,2013-07-19 11:04:00,
2013-07-19 21:09:00,58.7,58.7,29.85,SSW,194,0.0,0.0,100,0.00,,,0.00,WSDL version 420,2013-07-19 11:09:00,
2013-07-19 21:14:00,58.5,58.5,29.85,SE,146,0.0,0.0,100,0.00,,,0.00,WSDL version 420,2013-07-19 11:14:00,
2013-07-19 21:19:00,58.5,58.5,29.85,SE,135,0.0,0.0,100,0.00,,,0.00,WSDL version 420,2013-07-19 11:19:00,
2013-07-19 21:24:00,58.2,58.2,29.85,South,180,0.4,2.2,100,-99.99,,,-99.99,WSDL version 420,2013-07-19 11:24:00,
2013-07-19 21:29:00,58.1,58.1,29.85,SSE,160,0.0,2.2,100,0.00,,,0.00,WSDL version 420,2013-07-19 11:29:00,
2013-07-19 21:34:00,58.0,58.0,29.85,SSW,203,0.0,0.0,100,0.00,,,0.00,WSDL version 420,2013-07-19 11:34:00,
2013-07-19 21:39:00,57.9,57.9,29.85,South,180,0.0,0.0,100,-99.99,,,-99.99,WSDL version 420,2013-07-19 11:39:00,
2013-07-19 21:44:00,57.9,57.9,29.85,SSE,164,0.0,0.0,100,0.00,,,0.00,WSDL version 420,2013-07-19 11:44:00,
2013-07-19 21:49:00,57.7,57.7,29.83,SSE,167,0.0,0.0,100,0.00,,,0.00,WSDL version 420,2013-07-19 11:49:00,
2013-07-19 21:54:00,57.7,57.7,29.83,East,93,0.0,0.0,100,0.00,,,0.00,WSDL version 420,2013-07-19 11:54:00,
2013-07-19 21:59:00,57.7,57.7,29.83,SE,139,0.0,0.0,100,0.00,,,0.00,WSDL version 420,2013-07-19 11:59:00,
2013-07-19 22:04:00,57.6,57.6,29.83,SSE,167,0.0,0.0,100,0.00,,,0.00,WSDL version 420,2013-07-19 12:04:00,
2013-07-19 22:09:00,57.6,57.6,29.83,ESE,119,0.0,0.0,100,0.00,,,0.00,WSDL version 420,2013-07-19 12:09:00,
2013-07-19 22:14:00,57.6,57.6,29.83,SSW,195,0.0,0.0,100,0.00,,,0.00,WSDL version 420,2013-07-19 12:14:00,
2013-07-19 22:19:00,57.6,57.6,29.83,SSW,203,0.0,0.0,100,0.00,,,0.00,WSDL version 420,2013-07-19 12:19:00,
2013-07-19 22:24:00,57.5,57.5,29.83,SW,217,0.0,0.0,100,0.00,,,0.00,WSDL version 420,2013-07-19 12:24:00,
2013-07-19 22:29:00,57.5,57.5,29.83,NW,311,0.0,2.2,100,0.00,,,0.00,WSDL version 420,2013-07-19 12:29:00,
2013-07-19 22:34:00,57.6,57.6,29.83,NNE,13,0.0,2.2,100,0.00,,,0.00,WSDL version 420,2013-07-19 12:34:00,
2013-07-19 22:39:00,57.7,57.7,29.83,SSE,154,0.0,0.0,100,0.00,,,0.00,WSDL version 420,2013-07-19 12:39:00,
2013-07-19 22:44:00,57.8,57.8,29.83,SE,127,0.0,0.0,100,0.00,,,0.00,WSDL version 420,2013-07-19 12:44:00,
2013-07-19 22:49:00,57.9,57.9,29.83,South,183,0.0,0.0,100,0.00,,,0.00,WSDL version 420,2013-07-19 12:49:00,
2013-07-19 22:54:00,58.0,58.0,29.83,SW,222,0.0,0.0,100,0.00,,,0.00,WSDL version 420,2013-07-19 12:54:00,
2013-07-19 22:59:00,58.2,58.2,29.83,SW,225,0.0,0.0,100,0.00,,,0.00,WSDL version 420,2013-07-19 12:59:00,
2013-07-19 23:04:00,58.4,58.4,29.83,ESE,121,0.0,0.0,100,0.00,,,0.00,WSDL version 420,2013-07-19 13:04:00,
2013-07-19 23:09:00,58.5,58.5,29.83,SW,231,0.0,0.0,100,0.00,,,0.00,WSDL version 420,2013-07-19 13:09:00,
2013-07-19 23:14:00,58.5,58.5,29.83,SW,225,0.0,0.0,100,0.00,,,0.00,WSDL version 420,2013-07-19 13:14:00,
2013-07-19 23:19:00,58.5,58.5,29.80,SE,125,0.0,0.0,100,0.00,,,0.00,WSDL version 420,2013-07-19 13:19:00,
2013-07-19 23:24:00,58.2,58.2,29.80,SE,141,0.0,0.0,100,0.00,,,0.00,WSDL version 420,2013-07-19 13:24:00,
2013-07-19 23:29:00,58.1,58.1,29.80,ESE,107,0.0,0.0,100,0.00,,,0.00,WSDL version 420,2013-07-19 13:29:00,
2013-07-19 23:34:00,57.9,57.9,29.80,East,86,0.8,3.6,100,-99.99,,,-99.99,WSDL version 420,2013-07-19 13:34:00,
2013-07-19 23:39:00,58.1,58.1,29.80,ESE,110,0.0,3.6,100,0.00,,,0.00,WSDL version 420,2013-07-19 13:39:00,
2013-07-19 23:44:00,58.1,58.1,29.80,West,275,0.0,2.9,100,0.00,,,0.00,WSDL version 420,2013-07-19 13:44:00,
2013-07-19 23:49:00,58.0,58.0,29.80,WSW,248,0.0,2.9,100,0.00,,,0.00,WSDL version 420,2013-07-19 13:49:00,
2013-07-19 23:54:00,57.9,57.9,29.80,North,11,0.0,0.0,100,0.00,,,0.00,WSDL version 420,2013-07-19 13:54:00,
2013-07-19 23:59:00,57.7,57.6,29.80,WNW,293,0.0,0.0,100,0.00,,,0.00,WSDL version 420,2013-07-19 13:59:00,